User: anonymous   Login
Location: Unspecified
(0.0000°N, 0.0000°E)
Time: 19:12:44
(UTC+00:00)
Language:

QIANFAN-78 - Orbit

View from above orbital plane
View from above orbital plane
View from above satellite
View from above satellite

Ground track
Ground track

The orbit is defined by the following mean orbital elements,

1 63164U          26145.58990619 +.00000000 +00000-0 +36874-4 0 00000
2 63164  88.9691 303.0039 0015373  23.8328 336.3532 13.51007984    09
Epoch (UTC): 25 May 2026 14:09:27
Eccentricity: 0.0015373
inclination: 88.9691°
perigee height: 1057 km
apogee height: 1080 km
right ascension of ascending node: 303.0039°
argument of perigee: 23.8328°
revolutions per day: 13.51007984
mean anomaly at epoch: 336.3532°

The dashed part of the orbit path shows where the satellite is in the earth's shadow,  

DLR